Oneill, NE

1:12 PM CST on February 25, 2017 (GMT -0600)
The O'Neill Municipal-Baker

Weather History for KONL - November, 2012

Change the Weather History Date:

Tuesday, November 6, 2012

  Actual Average Record
Temperature  
Mean Temperature 44 °F -  
Max Temperature 55 °F 49 °F 75 °F (1954)
Min Temperature 34 °F 26 °F -7 °F (1959)
Degree Days  
Heating Degree Days 20    
Moisture  
Dew Point 30 °F    
Average Humidity 58    
Maximum Humidity 88    
Minimum Humidity 29    
Precipitation  
Precipitation 0.01 in - - ()
Sea Level Pressure  
Sea Level Pressure 30.06 in    
Wind  
Wind Speed 16 mph (NW)    
Max Wind Speed 36 mph    
Max Gust Speed 46 mph    
Visibility 10 miles    
Events Rain , Thunderstorm    
Averages and records for this station are not official NWS values.
T = Trace of Precipitation, MM = Missing Value Source: NWS Daily Summary

Daily Weather History Graph

Daily Weather History Graph

Search for Another Location

Airport or City:

Trip Planner

Search our weather history database for the weather conditions in past years. The results will help you decide how hot, cold, wet, or windy it might be!

Date:

Astronomy

Nov. 06, 2012 Rise Set
Actual Time 7:15 AM CST 5:21 PM CST
Civil Twilight 6:45 AM CST 5:50 PM CST
Nautical Twilight 6:11 AM CST 6:24 PM CST
Astronomical Twilight 5:39 AM CST 6:57 PM CST
Moon No Moon Rise 1:07 PM CST (11/6)
Length of Visible Light 11h 05m
Length of Day
10h 05m
Waning Gibbous, 53% of the Moon is Illuminated
Nov 6
Waning Gibbous
Nov 6
Last Quarter
Nov 13
New
Nov 20
First Quarter
Nov 28
Full

Hourly Weather History & Observations

Time (CST) Temp. Windchill Dew Point Humidity Pressure Visibility Wind Dir Wind Speed Gust Speed Precip Events Conditions
12:15 AM 41.9 °F 34.3 °F 37.4 °F 84% 29.97 in 10.0 mi SW 15.0 mph 23.0 mph 0.01 in Rain Rain
12:35 AM 41.5 °F 34.2 °F 37.9 °F 87% 29.94 in 10.0 mi SW 13.8 mph 23.0 mph 0.01 in Rain Light Rain
12:55 AM 41.9 °F 35.4 °F 38.5 °F 88% 29.92 in 10.0 mi SW 11.5 mph - 0.01 in   Mostly Cloudy
1:15 AM 42.4 °F 35.3 °F 38.7 °F 86% 29.92 in 10.0 mi SW 13.8 mph - N/A   Scattered Clouds
1:35 AM 42.3 °F 35.9 °F 38.1 °F 85% 29.93 in 10.0 mi West 11.5 mph - N/A   Scattered Clouds
1:55 AM 42.8 °F 37.5 °F 38.5 °F 85% 29.93 in 10.0 mi West 9.2 mph - N/A   Scattered Clouds
2:15 AM 44.1 °F 38.6 °F 39.9 °F 85% 29.93 in 10.0 mi West 10.4 mph - N/A   Scattered Clouds
2:35 AM 46.0 °F 40.2 °F 41.4 °F 84% 29.95 in 10.0 mi WNW 12.7 mph - N/A   Scattered Clouds
2:55 AM 47.1 °F - 42.4 °F 84% 29.95 in 10.0 mi WNW 17.3 mph 21.9 mph N/A   Clear
3:15 AM 47.8 °F - 43.2 °F 84% 29.96 in 10.0 mi NW 20.7 mph 26.5 mph N/A   Clear
3:35 AM 46.9 °F - 42.1 °F 83% 29.98 in 10.0 mi NW 20.7 mph 26.5 mph N/A   Clear
3:55 AM 45.5 °F 38.6 °F 39.4 °F 79% 29.99 in 10.0 mi NW 16.1 mph 23.0 mph N/A   Clear
4:15 AM 43.9 °F 37.2 °F 37.4 °F 78% 30.00 in 10.0 mi NNW 13.8 mph - N/A   Clear
4:35 AM 42.8 °F 36.2 °F 36.5 °F 78% 30.02 in 10.0 mi NW 12.7 mph - N/A   Clear
4:55 AM 41.9 °F 33.7 °F 35.6 °F 78% 30.03 in 10.0 mi NNW 17.3 mph - N/A   Clear
5:15 AM 41.2 °F 32.7 °F 35.4 °F 80% 30.04 in 10.0 mi NNW 17.3 mph - N/A   Clear
5:35 AM 40.6 °F 32.3 °F 34.3 °F 78% 30.04 in 10.0 mi NNW 16.1 mph 20.7 mph N/A   Clear
5:55 AM 40.1 °F 32.4 °F 33.8 °F 78% 30.04 in 10.0 mi NW 13.8 mph - N/A   Clear
6:15 AM 40.1 °F 31.3 °F 32.9 °F 75% 30.04 in 10.0 mi NW 17.3 mph - N/A   Clear
6:35 AM 39.9 °F 31.4 °F 32.4 °F 74% 30.04 in 10.0 mi WNW 16.1 mph - N/A   Clear
6:55 AM 39.4 °F 31.1 °F 32.0 °F 75% 30.06 in 10.0 mi NW 15.0 mph - N/A   Clear
7:15 AM 39.6 °F 31.3 °F 32.0 °F 74% 30.07 in 10.0 mi NW 15.0 mph - N/A   Scattered Clouds
7:35 AM 39.4 °F 31.4 °F 32.0 °F 75% 30.08 in 10.0 mi NW 13.8 mph - N/A   Scattered Clouds
7:55 AM 40.1 °F 32.4 °F 32.0 °F 73% 30.08 in 10.0 mi NW 13.8 mph - N/A   Clear
8:15 AM 41.0 °F 33.5 °F 32.0 °F 70% 30.09 in 10.0 mi WNW 13.8 mph - N/A   Clear
8:35 AM 42.4 °F 34.4 °F 32.2 °F 67% 30.09 in 10.0 mi WNW 17.3 mph 21.9 mph N/A   Clear
8:55 AM 43.7 °F 35.2 °F 32.2 °F 64% 30.10 in 10.0 mi NW 20.7 mph - N/A   Clear
9:15 AM 44.8 °F 36.6 °F 32.5 °F 62% 30.10 in 10.0 mi NW 20.7 mph 28.8 mph N/A   Clear
9:35 AM 45.9 °F 36.6 °F 32.0 °F 58% 30.10 in 10.0 mi NW 28.8 mph 35.7 mph N/A   Clear
9:55 AM 46.6 °F - 31.8 °F 56% 30.10 in 10.0 mi NW 26.5 mph 35.7 mph N/A   Clear
10:15 AM 47.7 °F - 31.1 °F 53% 30.11 in 10.0 mi NW 25.3 mph 31.1 mph N/A   Clear
10:35 AM 49.1 °F - 31.8 °F 51% 30.11 in 10.0 mi NW 18.4 mph 29.9 mph N/A   Clear
10:55 AM 50.0 °F - 29.3 °F 45% 30.11 in 10.0 mi NNW 25.3 mph 33.4 mph N/A   Clear
11:15 AM 51.1 °F - 28.8 °F 42% 30.10 in - NW 29.9 mph 39.1 mph N/A Thunderstorm Thunderstorm
11:35 AM 52.0 °F - 27.1 °F 38% 30.10 in 10.0 mi NW 31.1 mph 46.0 mph N/A   Clear
11:55 AM 52.7 °F - 26.2 °F 36% 30.10 in 10.0 mi NNW 33.4 mph 40.3 mph N/A   Clear
12:15 PM 53.4 °F - 25.3 °F 34% 30.09 in 10.0 mi NW 35.7 mph 44.9 mph N/A   Clear
12:35 PM 53.6 °F - 24.8 °F 33% 30.08 in 10.0 mi NW 35.7 mph 43.7 mph N/A   Clear
12:55 PM 54.1 °F - 25.2 °F 33% 30.07 in 10.0 mi NW 28.8 mph 40.3 mph N/A   Clear
1:15 PM 54.1 °F - 25.2 °F 33% 30.07 in 10.0 mi NNW 32.2 mph 40.3 mph N/A   Clear
1:35 PM 54.7 °F - 25.3 °F 32% 30.06 in 10.0 mi NW 29.9 mph 39.1 mph N/A   Clear
1:55 PM 54.7 °F - 24.8 °F 32% 30.06 in 10.0 mi NNW 25.3 mph 36.8 mph N/A   Clear
2:15 PM 55.2 °F - 24.6 °F 31% 30.07 in 10.0 mi NNW 31.1 mph 39.1 mph N/A   Clear
2:35 PM 55.2 °F - 23.7 °F 30% 30.06 in 10.0 mi NW 27.6 mph 38.0 mph N/A   Clear
2:55 PM 55.2 °F - 23.4 °F 29% 30.07 in 10.0 mi NW 31.1 mph 36.8 mph N/A   Clear
3:15 PM 54.9 °F - 23.0 °F 29% 30.07 in 10.0 mi NW 27.6 mph 38.0 mph N/A   Clear
3:35 PM 54.7 °F - 23.4 °F 30% 30.07 in 10.0 mi NNW 23.0 mph 36.8 mph N/A   Clear
3:55 PM 54.5 °F - 23.7 °F 30% 30.07 in 10.0 mi NW 23.0 mph 33.4 mph N/A   Clear
4:15 PM 54.0 °F - 23.5 °F 31% 30.08 in 10.0 mi NNW 18.4 mph 32.2 mph N/A   Clear
4:35 PM 53.4 °F - 23.2 °F 31% 30.08 in 10.0 mi NNW 21.9 mph 28.8 mph N/A   Clear
4:55 PM 51.8 °F - 23.9 °F 34% 30.08 in 10.0 mi NNW 16.1 mph 24.2 mph N/A   Clear
5:15 PM 50.2 °F - 25.0 °F 37% 30.09 in 10.0 mi NNW 13.8 mph - N/A   Clear
5:35 PM 48.4 °F - 25.3 °F 41% 30.09 in 10.0 mi NNW 10.4 mph - N/A   Clear
5:55 PM 46.4 °F 41.9 °F 25.5 °F 44% 30.10 in 10.0 mi NW 9.2 mph - N/A   Clear
6:15 PM 44.8 °F 40.4 °F 25.7 °F 47% 30.10 in 10.0 mi NW 8.1 mph - N/A   Clear
6:35 PM 43.3 °F 39.2 °F 25.3 °F 49% 30.10 in 10.0 mi NW 6.9 mph - N/A   Clear
6:55 PM 42.4 °F 38.8 °F 24.4 °F 49% 30.10 in 10.0 mi WNW 5.8 mph - N/A   Clear
7:15 PM 41.2 °F 36.6 °F 24.6 °F 52% 30.11 in 10.0 mi NW 6.9 mph - N/A   Clear
7:35 PM 41.9 °F 36.9 °F 24.3 °F 50% 30.10 in 10.0 mi NW 8.1 mph - N/A   Clear
7:55 PM 40.1 °F 36.1 °F 24.1 °F 53% 30.10 in 10.0 mi NW 5.8 mph - N/A   Clear
8:15 PM 39.6 °F 34.0 °F 24.6 °F 55% 30.10 in 10.0 mi NW 8.1 mph - N/A   Clear
8:35 PM 40.1 °F 35.3 °F 24.6 °F 54% 30.11 in 10.0 mi NW 6.9 mph - N/A   Clear
8:55 PM 37.0 °F 31.0 °F 24.3 °F 60% 30.11 in 10.0 mi NW 8.1 mph - N/A   Clear
9:15 PM 37.0 °F 31.6 °F 24.4 °F 60% 30.11 in 10.0 mi NW 6.9 mph - N/A   Clear
9:35 PM 37.0 °F 31.6 °F 24.1 °F 59% 30.12 in 10.0 mi West 6.9 mph - N/A   Clear
9:55 PM 34.3 °F 27.0 °F 23.9 °F 66% 30.12 in 10.0 mi West 9.2 mph - N/A   Clear
10:15 PM 35.4 °F 29.0 °F 23.9 °F 63% 30.12 in 10.0 mi WNW 8.1 mph - N/A   Clear
10:35 PM 36.7 °F 29.4 °F 23.9 °F 60% 30.12 in 10.0 mi WNW 10.4 mph - N/A   Clear
10:55 PM 36.5 °F 31.0 °F 23.9 °F 60% 30.12 in 10.0 mi WNW 6.9 mph - N/A   Clear
11:15 PM 35.1 °F 30.1 °F 23.7 °F 63% 30.12 in 10.0 mi WNW 5.8 mph - N/A   Clear
11:35 PM 34.9 °F 28.3 °F 23.9 °F 64% 30.13 in 10.0 mi WNW 8.1 mph - N/A   Clear
11:55 PM 35.4 °F 29.7 °F 23.9 °F 63% 30.13 in 10.0 mi WNW 6.9 mph - N/A   Clear